KCLM

William R. Fairchild International Airport

Airport
ICAO code
KCLM
Summary
ICAO Region
NAM
ICAO Territory
Location

Port Angeles, Washington,

Coordinates
48° 6' 59" N , 123° 29' 36" W
KCC
Airport WX
Fog
Metar
KCLM 190453Z AUTO 19004KT 10SM CLR 07/M02 A3024 RMK AO2 SLP241 T00671017

Description

William R. Fairchild International Airport is a public use airport located within the city limits of Port Angeles, in Clallam County, Washington.

Climatology

Temperate Marine climate/Oceanic climate (Köppen climate classification Cfb). Moderately cool summer and comparatively warm winter.

Airport map

Aerial View

SKYbrary Partners:

Safety knowledge contributed by: